Flag for Netherlands Weather past 2 weeks in Dordrecht, Netherlands

Now
61 °F

Cool.


Feels Like: 61 °F
Forecast: 55 / 71 °F
Wind: 3 mph from Northeast

Location: Rotterdam Zestienhoven Airport

Current Time: Sep 2, 2014 at 11:21:29 PM

Latest Report: Sep 2, 2014 at 10:55 PM


Visibility: N/A

Pressure: 30.24 "Hg

Humidity: 94%

Dew point: 59 °F

Location of DordrechtLocation

Historic Weather in Dordrecht — Graph

°F

Dordrecht temperature yesterday

Maximum temperature yesterday: 70 °F (at 4:55 PM)
Minimum temperature yesterday: 50 °F (at 6:55 AM)
Average temperature yesterday: 60 °F

Past Weeks' High & Low Weather Summary

 TemperatureHumidityPressure
High72 °F (Sep 2, 4:25 PM)100% (Aug 19, 3:55 AM)30.24 "Hg (Aug 19, 3:55 AM)
Low43 °F (Aug 27, 6:55 AM)49% (Aug 27, 1:55 PM)29.62 "Hg (Aug 26, 2:25 AM)
Average58 °F82%29.95 "Hg
* Reported Aug 18 9:25 PM — Sep 2 9:55 PM, Dordrecht, Weather by CustomWeather, © 2014

Note: Actual official high and low records may vary slightly from our data, if they occured in-between our weather recording intervals... More about our weather records

Advertising

Dordrecht weather history for previous 24 hours

 ConditionsComfort  
Time TempWeatherWind HumidityBarometerVisibility
9:55 PM
Sep 2
61 °FCool.7 mph88%30.24 "HgN/A
9:25 PM64 °FClear.6 mph83%30.21 "HgN/A
8:55 PM64 °FClear.9 mph83%30.21 "HgN/A
8:25 PM64 °FClear.8 mph83%30.21 "HgN/A
7:55 PM66 °FClear.8 mph73%30.21 "HgN/A
7:25 PM66 °FClear.8 mph68%30.21 "HgN/A
6:55 PM66 °FClear.9 mph64%30.21 "HgN/A
6:25 PM70 °FScattered clouds.7 mph60%30.21 "HgN/A
5:55 PM70 °FPassing clouds.8 mph64%30.18 "HgN/A
5:25 PM70 °FPartly sunny.6 mph60%30.18 "HgN/A
4:55 PM72 °FPartly sunny.7 mph57%30.18 "HgN/A
4:25 PM72 °FScattered clouds.6 mph53%30.18 "HgN/A
3:55 PM70 °FPassing clouds.6 mph57%30.18 "HgN/A
3:25 PM68 °FPartly sunny.7 mph64%30.21 "HgN/A
2:55 PM70 °FOvercast.6 mph60%30.21 "HgN/A
2:25 PM68 °FBroken clouds.6 mph60%30.21 "HgN/A
1:55 PM68 °FScattered clouds.3 mph64%30.21 "HgN/A
1:25 PM70 °FPassing clouds.3 mph60%30.21 "HgN/A
12:55 PM70 °FClear.5 mph60%30.21 "HgN/A
12:25 PM68 °FClear.6 mph60%30.21 "HgN/A
11:55 AM68 °FClear.7 mph60%30.21 "HgN/A
11:25 AM68 °FMild.7 mph64%30.21 "HgN/A
10:55 AM66 °FMild.6 mph64%30.18 "HgN/A
10:25 AM64 °FClear.5 mph73%30.18 "HgN/A
9:55 AM63 °FOvercast.5 mph83%30.18 "HgN/A
9:25 AM61 °FOvercast.5 mph88%30.18 "HgN/A
8:55 AM61 °FOvercast.5 mph88%30.18 "HgN/A
8:25 AM61 °FPartly sunny.6 mph88%30.18 "HgN/A
7:55 AM59 °FPartly sunny.5 mph94%30.15 "HgN/A
7:25 AM61 °FPassing clouds.3 mph83%30.15 "HgN/A
6:55 AM61 °FOvercast.1 mph83%30.15 "HgN/A
6:25 AM61 °FOvercast.5 mph83%30.15 "HgN/A
5:55 AM59 °FOvercast.5 mph94%30.15 "HgN/A
5:25 AM59 °FOvercast.5 mph94%30.15 "HgN/A
4:55 AM59 °FOvercast.2 mph88%30.15 "HgN/A
4:25 AM59 °FOvercast.3 mph94%30.12 "HgN/A
3:55 AM59 °FOvercast.1 mph88%30.12 "HgN/A
3:25 AM61 °FOvercast.3 mph83%30.12 "HgN/A
2:55 AM61 °FPassing clouds.6 mph83%30.12 "HgN/A
2:25 AM61 °FPassing clouds.5 mph83%30.12 "HgN/A
1:55 AM61 °FPassing clouds.5 mph83%30.15 "HgN/A
1:25 AM61 °FPassing clouds.3 mph83%30.15 "HgN/A
12:55 AM61 °FPassing clouds.5 mph88%30.15 "HgN/A
12:25 AM61 °FMostly cloudy.2 mph88%30.12 "HgN/A
11:55 PM
Sep 1
61 °FPassing clouds.2 mph88%30.15 "HgN/A
11:25 PM61 °FOvercast.2 mph88%30.15 "HgN/A
Weather by CustomWeather, © 2014

See weather overviewHow to use our weather pages